TimeCST,TemperatureF,Dew PointF,Humidity,Sea Level PressureIn,VisibilityMPH,Wind Direction,Wind SpeedMPH,Gust SpeedMPH,PrecipitationIn,Events,Conditions,WindDirDegrees,DateUTC
12:14 AM,37.4,33.8,87,30.03,10.0,North,6.9,-,N/A,,Clear,360,2012-11-09 06:14:00
12:33 AM,37.4,33.8,87,30.03,10.0,North,6.9,-,N/A,,Clear,10,2012-11-09 06:33:00
12:53 AM,37.4,33.8,87,30.04,10.0,North,8.1,-,N/A,,Clear,360,2012-11-09 06:53:00
1:14 AM,37.4,33.8,87,30.02,10.0,NNE,8.1,-,N/A,,Clear,20,2012-11-09 07:14:00
1:33 AM,35.6,33.8,93,30.01,10.0,NNE,8.1,-,N/A,,Clear,20,2012-11-09 07:33:00
1:54 AM,35.6,33.8,93,30.02,10.0,North,9.2,-,N/A,,Clear,10,2012-11-09 07:54:00
2:14 AM,37.4,33.8,87,30.03,10.0,North,10.4,-,N/A,,Clear,360,2012-11-09 08:14:00
2:33 AM,37.4,35.6,93,30.03,10.0,North,11.5,-,N/A,,Mostly Cloudy,10,2012-11-09 08:33:00
2:54 AM,37.4,33.8,87,30.02,10.0,NNE,9.2,-,N/A,,Scattered Clouds,20,2012-11-09 08:54:00
3:14 AM,39.2,35.6,87,30.02,10.0,NNE,10.4,-,N/A,,Mostly Cloudy,20,2012-11-09 09:14:00
3:33 AM,39.2,33.8,81,30.02,10.0,NNE,11.5,-,N/A,,Overcast,20,2012-11-09 09:33:00
3:54 AM,39.2,33.8,81,30.03,10.0,NNE,11.5,-,N/A,,Mostly Cloudy,20,2012-11-09 09:54:00
4:14 AM,39.2,33.8,81,30.03,10.0,NNE,12.7,-,N/A,,Overcast,30,2012-11-09 10:14:00
4:33 AM,39.2,33.8,81,30.03,10.0,NNE,12.7,-,N/A,,Mostly Cloudy,30,2012-11-09 10:33:00
4:54 AM,39.2,33.8,81,30.03,10.0,NNE,11.5,-,N/A,,Mostly Cloudy,30,2012-11-09 10:54:00
5:14 AM,39.2,33.8,81,30.03,10.0,NE,11.5,-,N/A,,Mostly Cloudy,40,2012-11-09 11:14:00
5:54 AM,39.2,33.8,81,30.02,10.0,NE,12.7,-,N/A,,Overcast,40,2012-11-09 11:54:00
6:14 AM,39.2,33.8,81,30.02,10.0,NE,11.5,-,N/A,,Overcast,40,2012-11-09 12:14:00
6:33 AM,39.2,33.8,81,30.01,10.0,NE,10.4,-,N/A,,Overcast,40,2012-11-09 12:33:00
6:54 AM,37.4,33.8,87,30.01,10.0,NE,12.7,-,N/A,,Mostly Cloudy,40,2012-11-09 12:54:00
7:14 AM,37.4,33.8,87,30.01,10.0,NE,11.5,-,N/A,,Scattered Clouds,50,2012-11-09 13:14:00
7:33 AM,37.4,33.8,87,30.02,10.0,NE,8.1,-,N/A,,Clear,50,2012-11-09 13:33:00
7:54 AM,35.6,33.8,93,30.03,10.0,NE,5.8,-,N/A,,Clear,50,2012-11-09 13:54:00
8:14 AM,37.4,33.8,87,30.03,10.0,NE,5.8,-,N/A,,Clear,40,2012-11-09 14:14:00
8:54 AM,39.2,35.6,87,30.02,10.0,NE,10.4,-,N/A,,Clear,50,2012-11-09 14:54:00
9:14 AM,39.2,35.6,87,30.01,10.0,ENE,11.5,-,N/A,,Clear,60,2012-11-09 15:14:00
9:33 AM,41.0,35.6,81,30.01,10.0,ENE,16.1,-,N/A,,Clear,60,2012-11-09 15:33:00
9:54 AM,41.0,35.6,81,30.00,10.0,ENE,15.0,-,N/A,,Clear,70,2012-11-09 15:54:00
10:14 AM,41.0,35.6,81,29.99,10.0,East,15.0,-,N/A,,Clear,80,2012-11-09 16:14:00
10:33 AM,42.8,35.6,76,30.00,10.0,East,15.0,-,N/A,,Clear,80,2012-11-09 16:33:00
10:54 AM,42.8,37.4,81,29.99,10.0,East,13.8,-,N/A,,Clear,90,2012-11-09 16:54:00
11:14 AM,44.6,37.4,76,29.98,10.0,East,13.8,-,N/A,,Scattered Clouds,100,2012-11-09 17:14:00
11:33 AM,44.6,37.4,76,29.97,10.0,East,15.0,-,N/A,,Clear,100,2012-11-09 17:33:00
11:54 AM,44.6,37.4,76,29.96,10.0,East,13.8,-,N/A,,Clear,80,2012-11-09 17:54:00
12:14 PM,44.6,37.4,76,29.94,10.0,East,15.0,-,N/A,,Scattered Clouds,90,2012-11-09 18:14:00
12:33 PM,46.4,37.4,71,29.93,10.0,East,13.8,-,N/A,,Scattered Clouds,80,2012-11-09 18:33:00
12:54 PM,46.4,37.4,71,29.92,10.0,East,16.1,-,N/A,,Scattered Clouds,90,2012-11-09 18:54:00
1:13 PM,46.4,37.4,71,29.91,10.0,East,12.7,-,N/A,,Clear,100,2012-11-09 19:13:00
1:33 PM,48.2,37.4,66,29.90,10.0,East,17.3,-,N/A,,Clear,100,2012-11-09 19:33:00
1:54 PM,48.2,37.4,66,29.89,10.0,East,16.1,-,N/A,,Clear,90,2012-11-09 19:54:00
2:13 PM,48.2,37.4,66,29.90,10.0,East,13.8,20.7,N/A,,Scattered Clouds,100,2012-11-09 20:13:00
2:33 PM,48.2,37.4,66,29.89,10.0,East,13.8,18.4,N/A,,Scattered Clouds,90,2012-11-09 20:33:00
2:54 PM,48.2,37.4,66,29.89,10.0,East,12.7,-,N/A,,Scattered Clouds,80,2012-11-09 20:54:00
3:13 PM,48.2,37.4,66,29.89,10.0,East,12.7,20.7,N/A,,Clear,90,2012-11-09 21:13:00
3:33 PM,48.2,37.4,66,29.89,10.0,East,16.1,-,N/A,,Clear,90,2012-11-09 21:33:00
3:54 PM,48.2,37.4,66,29.89,10.0,East,17.3,-,N/A,,Clear,90,2012-11-09 21:54:00
4:13 PM,48.2,37.4,66,29.88,10.0,East,13.8,20.7,N/A,,Clear,90,2012-11-09 22:13:00
4:33 PM,46.4,37.4,71,29.88,10.0,East,13.8,-,N/A,,Clear,80,2012-11-09 22:33:00
4:54 PM,46.4,37.4,71,29.87,10.0,East,13.8,20.7,N/A,,Clear,80,2012-11-09 22:54:00
5:13 PM,46.4,37.4,71,29.88,10.0,East,13.8,-,N/A,,Clear,80,2012-11-09 23:13:00
5:33 PM,44.6,37.4,76,29.88,10.0,ENE,13.8,-,N/A,,Clear,70,2012-11-09 23:33:00
5:54 PM,44.6,37.4,76,29.88,10.0,East,18.4,-,N/A,,Clear,80,2012-11-09 23:54:00
6:13 PM,44.6,37.4,76,29.88,10.0,East,17.3,20.7,N/A,,Clear,80,2012-11-10 00:13:00
6:33 PM,44.6,37.4,76,29.89,10.0,East,12.7,17.3,N/A,,Scattered Clouds,80,2012-11-10 00:33:00
6:54 PM,44.6,37.4,76,29.88,10.0,East,16.1,-,N/A,,Overcast,80,2012-11-10 00:54:00
7:14 PM,44.6,37.4,76,29.88,10.0,East,17.3,-,N/A,,Overcast,80,2012-11-10 01:14:00
7:33 PM,42.8,37.4,81,29.88,10.0,East,13.8,-,N/A,,Overcast,80,2012-11-10 01:33:00
7:54 PM,42.8,37.4,81,29.90,10.0,East,11.5,17.3,N/A,,Mostly Cloudy,80,2012-11-10 01:54:00
8:14 PM,42.8,37.4,81,29.89,10.0,East,13.8,-,N/A,,Scattered Clouds,80,2012-11-10 02:14:00
8:33 PM,42.8,37.4,81,29.88,10.0,East,16.1,-,N/A,,Mostly Cloudy,80,2012-11-10 02:33:00
8:54 PM,42.8,37.4,81,29.88,10.0,East,16.1,-,N/A,,Mostly Cloudy,80,2012-11-10 02:54:00
9:14 PM,42.8,35.6,76,29.87,10.0,East,19.6,23.0,N/A,,Scattered Clouds,90,2012-11-10 03:14:00
9:33 PM,42.8,37.4,81,29.86,10.0,East,19.6,23.0,N/A,,Scattered Clouds,90,2012-11-10 03:33:00
9:54 PM,42.8,37.4,81,29.86,10.0,East,17.3,25.3,N/A,,Scattered Clouds,100,2012-11-10 03:54:00
10:14 PM,44.6,37.4,76,29.86,10.0,East,15.0,-,N/A,,Clear,100,2012-11-10 04:14:00
10:33 PM,44.6,37.4,76,29.83,10.0,East,18.4,21.9,N/A,,Clear,100,2012-11-10 04:33:00
10:54 PM,44.6,37.4,76,29.83,10.0,East,19.6,26.5,N/A,,Clear,100,2012-11-10 04:54:00
11:14 PM,44.6,37.4,76,29.82,10.0,ESE,19.6,26.5,N/A,,Scattered Clouds,110,2012-11-10 05:14:00
11:33 PM,44.6,37.4,76,29.81,10.0,ESE,19.6,25.3,N/A,,Scattered Clouds,110,2012-11-10 05:33:00
11:54 PM,44.6,37.4,76,29.80,10.0,ESE,16.1,-,N/A,,Clear,110,2012-11-10 05:54:00